Flag for China Weather past 2 weeks in Tsingtao, Shandong, China

Now
72 °F

Light rain. Partly sunny.


Feels Like: 69 °F
Forecast: 69 / 77 °F
Wind: 8 mph from Northeast

Location: Qingdao Airport

Current Time: Sep 2, 2014 at 6:12:15 PM

Latest Report: Sep 2, 2014 at 5:00 PM


Visibility: N/A

Pressure: 29.71 "Hg

Humidity: 88%

Dew point: 68 °F

Location of TsingtaoLocation

Historic Weather in Tsingtao — Graph

°F

Tsingtao temperature yesterday

Maximum temperature yesterday: 84 °F (at 2:00 PM)
Minimum temperature yesterday: 68 °F (at 2:00 AM)
Average temperature yesterday: 75 °F

Past Weeks' High & Low Weather Summary

 TemperatureHumidityPressure
High90 °F (Aug 21, 2:00 PM)94% (Aug 19, 2:00 AM)30.01 "Hg (Aug 19, 2:00 AM)
Low66 °F (Aug 26, 3:00 AM)29% (Aug 27, 3:00 PM)29.68 "Hg (Aug 24, 4:00 AM)
Average77 °F72%29.87 "Hg
* Reported Aug 18 4:00 PM — Sep 2 4:00 PM, Tsingtao, Weather by CustomWeather, © 2014

Note: Actual official high and low records may vary slightly from our data, if they occured in-between our weather recording intervals... More about our weather records

Advertising

Tsingtao weather history for previous 24 hours

 ConditionsComfort  
Time TempWeatherWind HumidityBarometerVisibility
4:00 PM
Sep 2
70 °FLight rain. Broken clouds.8 mph94%29.71 "HgN/A
3:00 PM70 °FLight rain. Scattered clouds.8 mph94%29.74 "Hg5 mi
2:00 PM72 °FLight rain. Scattered clouds.8 mph88%29.74 "Hg5 mi
1:00 PM72 °FLight rain. Scattered clouds.6 mph88%29.77 "HgN/A
12:00 PM72 °FLight rain. Partly sunny.3 mph78%29.80 "HgN/A
11:00 AM72 °FLight rain. Scattered clouds.8 mph73%29.83 "HgN/A
10:00 AM73 °FLight rain. Scattered clouds.3 mph83%29.83 "HgN/A
9:00 AM75 °FLight rain. Scattered clouds.No wind78%29.83 "HgN/A
8:00 AM73 °FLight rain. Scattered clouds.3 mph78%29.80 "HgN/A
7:00 AM72 °FLight rain. Scattered clouds.1 mph83%29.83 "HgN/A
6:00 AM72 °FPassing clouds.1 mph83%29.83 "HgN/A
5:00 AM72 °FLight rain. Passing clouds.3 mph83%29.83 "HgN/A
4:00 AM72 °FLight rain. Passing clouds.3 mph78%29.83 "HgN/A
3:00 AM72 °FPassing clouds.3 mph78%29.86 "HgN/A
2:00 AM73 °FClear.3 mph74%29.86 "Hg10 mi
1:00 AM73 °FClear.3 mph74%29.89 "Hg10 mi
12:00 AM72 °FClear.3 mph83%29.89 "Hg10 mi
11:00 PM
Sep 1
73 °FClear.1 mph78%29.89 "Hg10 mi
10:00 PM75 °FClear.6 mph74%29.92 "Hg10 mi
9:00 PM73 °FClear.6 mph78%29.92 "Hg10 mi
8:00 PM75 °FClear.6 mph69%29.92 "Hg10 mi
7:00 PM75 °FClear.6 mph69%29.92 "Hg10 mi
6:00 PM77 °FPassing clouds.8 mph61%29.89 "HgN/A
Weather by CustomWeather, © 2014

See weather overviewHow to use our weather pages